Location: Shenandoah County Park
(38.9356°N, 78.4524°W)
Time: 13:09:30
(UTC-05:00)

Vanguard 2 Rocket - Pass Details

Date: 03 December 2023
Orbit: 555 x 3309 km, 32.9° (Epoch: 02 March)

Event Time Altitude Azimuth Distance (km) Brightness Sun altitude
Rises 18:53:01 0° 274° (W) 7,236 12.8 -23.0°
Reaches altitude 10° 18:57:54 10° 272° (W) 6,265 12.2 -23.9°
Maximum altitude 19:17:37 64° 197° (SSW) 3,090 9.5 -27.7°
Enters shadow 19:26:42 29° 128° (SE) 3,654 9.5 -29.5°
Drops below altitude 10° 19:31:24 10° 120° (ESE) 4,568 - -30.4°
Sets 19:34:22 0° 117° (ESE) 5,259 - -31.0°
